Weather History for KHCD - January, 2012

Change the Weather History Date:

Tuesday, January 3, 2012

  Actual Average Record
Temperature  
Mean Temperature 19 °F -  
Max Temperature 29 °F 21 °F 43 °F (1962)
Min Temperature 9 °F 1 °F -17 °F (1959)
Degree Days  
Heating Degree Days 46    
Moisture  
Dew Point 14 °F    
Average Humidity 80    
Maximum Humidity 89    
Minimum Humidity 68    
Precipitation  
Precipitation 0.00 in - - ()
Sea Level Pressure  
Sea Level Pressure 30.06 in    
Wind  
Wind Speed 6 mph (SSE)    
Max Wind Speed 15 mph    
Max Gust Speed 25 mph    
Visibility 10 miles    
Events      
Averages and records for this station are not official NWS values.
T = Trace of Precipitation, MM = Missing Value Source: NWS Daily Summary

Daily Weather History Graph

Daily Weather History Graph

Search for Another Location

Airport or City:

Trip Planner

Search our weather history database for the weather conditions in past years. The results will help you decide how hot, cold, wet, or windy it might be!

Date:

Astronomy

Jan. 03, 2012 Rise Set
Actual Time 7:55 AM CST 4:48 PM CST
Civil Twilight 7:21 AM CST 5:22 PM CST
Nautical Twilight 6:44 AM CST 5:59 PM CST
Astronomical Twilight 6:09 AM CST 6:34 PM CST
Moon 12:40 PM CST (1/3) 2:42 AM CST (1/3)
Length of Visible Light 10h 00m
Length of Day
8h 53m
Waxing Gibbous, 73% of the Moon is Illuminated
Jan 3
Waxing Gibbous
Jan 9
Full
Jan 16
Last Quarter
Jan 23
New
Jan 30
First Quarter

Hourly Weather History & Observations

Time (CST) Temp. Windchill Dew Point Humidity Pressure Visibility Wind Dir Wind Speed Gust Speed Precip Events Conditions
12:13 AM 14.5 °F 8.8 °F 10.8 °F 85% 30.42 in 10.0 mi South 3.5 mph - N/A   Clear
12:32 AM 12.0 °F 5.9 °F 8.4 °F 85% 30.40 in 10.0 mi South 3.5 mph - N/A   Clear
12:53 AM 12.0 °F - 8.6 °F 86% 30.39 in 10.0 mi Calm Calm - N/A   Clear
1:12 AM 10.8 °F 4.5 °F 7.5 °F 87% 30.38 in 10.0 mi SE 3.5 mph - N/A   Clear
1:33 AM 9.5 °F - 6.3 °F 87% 30.37 in 10.0 mi Calm Calm - N/A   Clear
1:52 AM 9.5 °F - 6.4 °F 87% 30.36 in 10.0 mi Calm Calm - N/A   Clear
2:12 AM 9.9 °F - 6.6 °F 87% 30.35 in 10.0 mi Calm Calm - N/A   Clear
2:33 AM 9.5 °F - 6.3 °F 87% 30.34 in 10.0 mi Calm Calm - N/A   Clear
2:53 AM 9.5 °F 3.0 °F 5.9 °F 85% 30.33 in 10.0 mi SSE 3.5 mph - N/A   Clear
3:32 AM 9.5 °F -0.3 °F 5.9 °F 85% 30.30 in 10.0 mi SE 5.8 mph - N/A   Clear
3:53 AM 9.5 °F 1.2 °F 6.3 °F 87% 30.29 in 10.0 mi SE 4.6 mph - N/A   Clear
4:12 AM 9.5 °F 3.0 °F 5.9 °F 85% 30.28 in 10.0 mi SSE 3.5 mph - N/A   Clear
4:32 AM 9.5 °F -1.5 °F 6.3 °F 87% 30.25 in 10.0 mi SE 6.9 mph - N/A   Clear
4:52 AM 10.8 °F 1.2 °F 6.8 °F 84% 30.25 in 10.0 mi SSE 5.8 mph - N/A   Clear
5:12 AM 12.0 °F 2.7 °F 8.2 °F 85% 30.22 in 10.0 mi SSE 5.8 mph - N/A   Clear
5:33 AM 12.0 °F 1.5 °F 8.1 °F 84% 30.21 in 10.0 mi SSE 6.9 mph - N/A   Clear
5:52 AM 12.0 °F 2.7 °F 8.2 °F 85% 30.20 in 10.0 mi SSE 5.8 mph - N/A   Clear
6:12 AM 12.0 °F 4.1 °F 8.1 °F 84% 30.19 in 10.0 mi SSE 4.6 mph - N/A   Clear
6:33 AM 12.0 °F 1.5 °F 7.9 °F 83% 30.17 in 10.0 mi SSE 6.9 mph - N/A   Clear
6:53 AM 14.5 °F 5.7 °F 10.4 °F 84% 30.17 in 10.0 mi SSE 5.8 mph - N/A   Clear
7:12 AM 14.5 °F 4.6 °F 10.2 °F 83% 30.16 in 10.0 mi SSE 6.9 mph - N/A   Clear
7:33 AM 14.5 °F 3.6 °F 10.2 °F 83% 30.14 in 10.0 mi SE 8.1 mph - N/A   Clear
8:12 AM 14.5 °F 2.7 °F 10.0 °F 82% 30.11 in 10.0 mi SSE 9.2 mph - N/A   Clear
8:33 AM 14.7 °F 2.1 °F 9.5 °F 80% 30.09 in 10.0 mi SSE 10.4 mph 16.1 mph N/A   Clear
8:52 AM 16.7 °F 2.0 °F 10.8 °F 77% 30.07 in 10.0 mi SE 15.0 mph 19.6 mph N/A   Clear
9:13 AM 17.1 °F 4.3 °F 11.1 °F 77% 30.06 in 10.0 mi SSE 11.5 mph 19.6 mph N/A   Clear
9:33 AM 17.1 °F 5.0 °F 10.8 °F 76% 30.06 in 10.0 mi SSE 10.4 mph 16.1 mph N/A   Clear
9:53 AM 19.4 °F 7.2 °F 12.7 °F 75% 30.05 in 10.0 mi SSE 11.5 mph 18.4 mph N/A   Clear
10:13 AM 19.4 °F 6.6 °F 12.6 °F 75% 30.03 in 10.0 mi SSE 12.7 mph 24.2 mph N/A   Clear
10:33 AM 19.4 °F 7.9 °F 12.4 °F 74% 30.04 in 10.0 mi South 10.4 mph 18.4 mph N/A   Clear
10:53 AM 20.8 °F 11.2 °F 13.3 °F 73% 30.03 in 10.0 mi SSE 8.1 mph 16.1 mph N/A   Clear
11:13 AM 22.1 °F 11.3 °F 14.9 °F 74% 30.00 in 10.0 mi SSE 10.4 mph 18.4 mph N/A   Clear
11:32 AM 22.1 °F 9.5 °F 13.8 °F 70% 29.97 in 10.0 mi South 13.8 mph 25.3 mph N/A   Clear
11:53 AM 22.1 °F 9.5 °F 13.8 °F 70% 29.96 in 10.0 mi South 13.8 mph 25.3 mph N/A   Clear
12:12 PM 24.6 °F 13.2 °F 16.2 °F 70% 29.95 in 10.0 mi South 12.7 mph 19.6 mph N/A   Clear
12:32 PM 23.4 °F 11.6 °F 15.8 °F 73% 29.94 in 10.0 mi South 12.7 mph 19.6 mph N/A   Clear
12:53 PM 24.8 °F 13.4 °F 16.5 °F 71% 29.93 in 10.0 mi South 12.7 mph 18.4 mph N/A   Clear
1:12 PM 27.1 °F 16.4 °F 18.5 °F 70% 29.92 in 10.0 mi South 12.7 mph 16.1 mph N/A   Clear
1:33 PM 27.1 °F 18.9 °F 19.4 °F 73% 29.91 in 10.0 mi South 8.1 mph 16.1 mph N/A   Clear
1:52 PM 29.7 °F 20.1 °F 21.0 °F 70% 29.90 in 10.0 mi South 11.5 mph 19.6 mph N/A   Clear
2:12 PM 29.7 °F 19.6 °F 20.3 °F 68% 29.89 in 10.0 mi South 12.7 mph 18.4 mph N/A   Clear
2:32 PM 29.7 °F 20.1 °F 21.6 °F 72% 29.87 in 10.0 mi South 11.5 mph - N/A   Clear
2:53 PM 29.7 °F 20.1 °F 21.7 °F 72% 29.89 in 10.0 mi South 11.5 mph - N/A   Clear
3:13 PM 29.7 °F 21.3 °F 22.1 °F 73% 29.87 in 10.0 mi South 9.2 mph - N/A   Clear
3:32 PM 29.7 °F 20.7 °F 22.5 °F 75% 29.87 in 10.0 mi South 10.4 mph - N/A   Clear
3:53 PM 29.7 °F 22.8 °F 23.0 °F 76% 29.87 in 10.0 mi South 6.9 mph - N/A   Clear
4:13 PM 29.7 °F 22.8 °F 23.4 °F 77% 29.87 in 10.0 mi South 6.9 mph - N/A   Clear
4:33 PM 29.7 °F 23.7 °F 23.9 °F 79% 29.88 in 10.0 mi South 5.8 mph - N/A   Clear
4:52 PM 26.8 °F 22.8 °F 22.1 °F 83% 29.85 in 10.0 mi SSE 3.5 mph - N/A   Clear
5:13 PM 26.8 °F 22.8 °F 22.6 °F 84% 29.86 in 10.0 mi SSE 3.5 mph - N/A   Clear
5:33 PM 24.6 °F 16.7 °F 20.7 °F 85% 29.85 in 10.0 mi South 6.9 mph - N/A   Clear
5:52 PM 25.3 °F 18.5 °F 21.4 °F 85% 29.84 in 10.0 mi South 5.8 mph - N/A   Clear
6:13 PM 24.8 °F 16.9 °F 20.8 °F 85% 29.84 in 10.0 mi South 6.9 mph - N/A   Clear
6:33 PM 24.6 °F 20.3 °F 21.2 °F 87% 29.85 in 10.0 mi SSW 3.5 mph - N/A   Clear
6:53 PM 24.8 °F 19.1 °F 21.2 °F 86% 29.84 in 10.0 mi South 4.6 mph - N/A   Clear
7:13 PM 24.6 °F - 21.0 °F 86% 29.86 in 10.0 mi Calm Calm - N/A   Clear
7:32 PM 24.3 °F 19.9 °F 20.3 °F 85% 29.84 in 10.0 mi SSE 3.5 mph - N/A   Clear
7:53 PM 22.8 °F 16.7 °F 19.8 °F 88% 29.83 in 10.0 mi South 4.6 mph - N/A   Clear
8:12 PM 22.8 °F - 19.8 °F 88% 29.84 in 10.0 mi Calm Calm - N/A   Clear
8:33 PM 22.1 °F - 19.2 °F 89% 29.83 in 10.0 mi Calm Calm - N/A   Clear
8:52 PM 21.0 °F - 18.3 °F 89% 29.83 in 10.0 mi Calm Calm - N/A   Clear
9:13 PM 21.2 °F - 18.7 °F 90% 29.83 in 10.0 mi Calm Calm - N/A   Clear
9:52 PM 20.3 °F 13.8 °F 17.8 °F 90% 29.84 in 10.0 mi West 4.6 mph - N/A   Clear
10:13 PM 21.6 °F 14.0 °F 19.0 °F 90% 29.85 in 10.0 mi West 5.8 mph - N/A   Clear
10:32 PM 23.5 °F 14.5 °F 21.2 °F 91% 29.86 in 10.0 mi West 8.1 mph - N/A   Clear
10:53 PM 24.4 °F 16.5 °F 21.4 °F 88% 29.87 in 10.0 mi West 6.9 mph - N/A   Clear
11:13 PM 29.3 °F 20.2 °F 25.2 °F 85% 29.86 in 10.0 mi WNW 10.4 mph - N/A   Clear
11:32 PM 28.6 °F 22.4 °F 23.4 °F 81% 29.87 in 10.0 mi WNW 5.8 mph - N/A   Clear
11:53 PM 27.1 °F 19.7 °F 22.3 °F 82% 29.88 in 10.0 mi WNW 6.9 mph - N/A   Clear